Regional Weather Roundup
Issued by NWS

Home | Current Version | Previous Version | Text Only | Print | Product List | Glossary Off
Versions: 1 2 3 4 5 6 7 8 9 10 11 12 13 14 15 16 17 18 19 20 21 22 23 24 25 26 27 28 29 30 31 32 33 34 35 36 37 38 39 40 41 42 43 44 45 46 47 48 49 50

000
ASUS43 KIND 220909
RWRIN

WEATHER ROUNDUP FOR INDIANA
NATIONAL WEATHER SERVICE INDIANAPOLIS IN
500 AM EDT MON MAY 22 2017

NOTE: "FAIR" INDICATES FEW OR NO CLOUDS BELOW 12,000 FEET WITH NO
SIGNIFICANT WEATHER AND/OR OBSTRUCTIONS TO VISIBILITY.

* - STATION DOES NOT REPORT WEATHER SUCH AS PRECIPITATION OR FOG.

+ - STATION NOT QUALITY CONTROLLED BY THE NATIONAL WEATHER SERVICE.
    USE DATA WITH CAUTION...ESPECIALLY DEWPOINT AND RELATIVE
    HUMIDITY OBSERVATIONS.

INZ001>003-010>013-019-020-221000-
NORTHWEST INDIANA

CITY           SKY/WX    TMP DP  RH WIND       PRES   REMARKS
GARY /AIRPORT/ CLEAR     53  40  62 W10       30.03S
KNOX *+        MOCLDY    50  36  57 SW8       30.04R
LA PORTE +     CLOUDY    49  44  81 SW8       30.03R
MICHIGAN CITY+ CLOUDY    50  43  76 SW7       30.02S
MONTICELLO +   CLEAR     48  44  86 SW7       30.06S
RENSSELAER +   CLEAR     50  43  76 SW9       30.07R
VALPARAISO     CLEAR     50  43  77 SW9       30.04R

$$

LMZ046-743>745-221000-
SOUTHERN LAKE MICHIGAN

STATION/POSITION TIME  TEMP    WIND        PRES    WAVE
                       AIR SEA DIR/SP/G            HT
                 (UTC) (F)     (DEG/KT/KT) (MB)    (FT)
BURNS HARBOR     0840   53     240/ 14/ 19 1016.9S
MICHIGAN CITY    0840   52     240/ 19/ 21   N/A
5NW MICH CITY    0900   52 52  260/ 16/ 21   N/A     4

$$

INZ004-005-014>016-021>024-221000-
NORTH CENTRAL INDIANA

CITY           SKY/WX    TMP DP  RH WIND       PRES   REMARKS
GOSHEN         CLOUDY    51  41  68 SW13      30.02S
LOGANSPORT +   CLEAR     46  43  87 SW7       30.08R
PERU/GRISSOM   PTCLDY    47  45  92 SW9       30.06S
ROCHESTER +    CLOUDY    52  45  76 SW8       30.05S
SOUTH BEND     CLOUDY    50  44  80 SW10      30.02R
WARSAW +       CLOUDY    50  41  71 SW8       30.04S

$$

INZ006>009-017-018-025>027-221000-
NORTHEAST INDIANA

CITY           SKY/WX    TMP DP  RH WIND       PRES   REMARKS
ANGOLA *+      CLOUDY    50  43  76 W7        30.01S
AUBURN +       CLOUDY    50  41  71 SW6       30.04S
FORT WAYNE     CLOUDY    50  42  74 SW10      30.05S
HUNTINGTON +   MOCLDY    49  44  84 SW5       30.05S
KENDALLVILLE + CLOUDY    49  41  73 W12       30.02F

$$

INZ028-029-035-036-043>045-051>053-221000-
WEST CENTRAL INDIANA

CITY           SKY/WX    TMP DP  RH WIND       PRES   REMARKS
CRAWFORDSVL +  CLEAR     46  45  97 SW6       30.10S
GREENCASTLE +  CLOUDY    45  43  93 CALM      30.11S
LAFAYETTE      CLEAR     47  44  90 W6        30.08S
TERRE HAUTE    CLEAR     50  45  83 CALM      30.12R

$$

INZ030>032-037>040-046>048-054>057-064-065-221000-
CENTRAL INDIANA

CITY           SKY/WX    TMP DP  RH WIND       PRES   REMARKS
CP ATTERBURY + CLOUDY    46  45  93 CALM      30.13R
FISHERS *+     PTCLDY    46  45  93 SW3       30.10S
FRANKFORT +    CLEAR     51  45  81 W8        30.10S
GREENWOOD *+   PTCLDY    49  43  79 CALM      30.11S
INDIANAPOLIS   CLOUDY    47  43  86 SW7       30.10S
-EAGLE CREEK   PTCLDY    49  42  77 SW3       30.09S
KOKOMO +       CLEAR     48  43  82 SW8       30.08S
MARION +       CLOUDY    48  43  81 SW8       30.08F
MT COMFORT *+  CLOUDY    48  43  81 SW5       30.10S
SHELBYVILLE    MOCLDY    51  43  74 S7        30.10S
ZIONSVILLE +   CLOUDY    45  43  92 SW5       30.10S

$$

INZ033-034-041-042-049-050-058-059-221000-
EAST CENTRAL INDIANA

CITY           SKY/WX    TMP DP  RH WIND       PRES   REMARKS
MUNCIE         CLOUDY    50  41  71 SW6       30.08S
RICHMOND +     CLOUDY    46  41  81 W5        30.10S

$$

INZ060-061-067>069-081>083-085>088-221000-
SOUTHWEST INDIANA

CITY           SKY/WX    TMP DP  RH WIND       PRES   REMARKS
EVANSVILLE     CLOUDY    54  49  83 CALM      30.14S
HUNTINGBURG *+ CLEAR     51  49  92 SE3       30.13F
WASHINGTON +   PTCLDY    52  50  93 CALM      30.12F

$$

INZ062-063-066-070>080-084-089>092-221000-
SOUTH CENTRAL AND SOUTHEAST INDIANA

CITY           SKY/WX    TMP DP  RH WIND       PRES   REMARKS
BEDFORD +      MOCLDY    48  45  87 CALM      30.12F
BLOOMINGTON    PTCLDY    48  44  86 CALM      30.12S
MADISON *+     PTCLDY    52  46  82 CALM      30.15R
NORTH VERNON + CLOUDY    48  45  87 CALM      30.13R
SEYMOUR +      CLOUDY    52  46  82 W3        30.12S

$$





USA.gov is the U.S. government's official web portal to all federal, state and local government web resources and services.